TimeAKST,TemperatureF,Dew PointF,Humidity,Sea Level PressureIn,VisibilityMPH,Wind Direction,Wind SpeedMPH,Gust SpeedMPH,PrecipitationIn,Events,Conditions,WindDirDegrees,DateUTC
12:16 AM,30.2,26.6,86,30.27,10.0,NNW,4.6,-,N/A,,Overcast,340,2013-01-19 09:16:00
12:36 AM,30.2,26.6,86,30.28,10.0,NNW,4.6,-,N/A,,Overcast,340,2013-01-19 09:36:00
12:56 AM,30.2,26.6,86,30.28,10.0,NNW,3.5,-,N/A,,Overcast,340,2013-01-19 09:56:00
1:16 AM,30.2,26.6,86,30.28,10.0,NNW,5.8,-,N/A,,Overcast,340,2013-01-19 10:16:00
1:36 AM,32.0,28.4,87,30.29,10.0,NNW,5.8,-,N/A,,Overcast,330,2013-01-19 10:36:00
1:56 AM,32.0,28.4,87,30.29,10.0,NNW,5.8,-,N/A,,Overcast,330,2013-01-19 10:56:00
2:16 AM,32.0,28.4,87,30.30,10.0,NNW,5.8,-,N/A,,Overcast,330,2013-01-19 11:16:00
2:36 AM,32.0,28.4,87,30.30,10.0,NNW,4.6,-,N/A,,Overcast,330,2013-01-19 11:36:00
2:56 AM,32.0,28.4,87,30.30,10.0,NNW,5.8,-,N/A,,Mostly Cloudy,330,2013-01-19 11:56:00
3:16 AM,32.0,28.4,87,30.30,10.0,NNW,5.8,-,N/A,,Mostly Cloudy,330,2013-01-19 12:16:00
3:36 AM,32.0,26.6,80,30.29,10.0,NNW,6.9,-,N/A,,Mostly Cloudy,330,2013-01-19 12:36:00
3:56 AM,32.0,26.6,80,30.30,10.0,NW,5.8,-,N/A,,Mostly Cloudy,320,2013-01-19 12:56:00
4:16 AM,32.0,28.4,87,30.30,10.0,NNW,6.9,-,N/A,,Overcast,330,2013-01-19 13:16:00
4:36 AM,32.0,28.4,87,30.30,10.0,NW,4.6,-,N/A,,Scattered Clouds,320,2013-01-19 13:36:00
4:56 AM,30.2,26.6,86,30.30,10.0,NW,4.6,-,N/A,,Mostly Cloudy,320,2013-01-19 13:56:00
5:16 AM,30.2,26.6,86,30.30,10.0,NW,4.6,-,N/A,,Overcast,320,2013-01-19 14:16:00
5:36 AM,30.2,28.4,93,30.31,10.0,WNW,3.5,-,N/A,,Overcast,290,2013-01-19 14:36:00
5:56 AM,30.2,26.6,86,30.31,10.0,Calm,Calm,-,N/A,,Overcast,0,2013-01-19 14:56:00
6:16 AM,30.2,26.6,86,30.31,10.0,NNW,5.8,-,N/A,,Overcast,330,2013-01-19 15:16:00
6:36 AM,30.2,24.8,80,30.31,10.0,NW,5.8,-,N/A,,Overcast,320,2013-01-19 15:36:00
6:56 AM,30.2,24.8,80,30.31,10.0,NNW,6.9,-,N/A,,Overcast,330,2013-01-19 15:56:00
7:16 AM,30.2,26.6,86,30.31,10.0,North,6.9,-,N/A,,Overcast,350,2013-01-19 16:16:00
7:36 AM,30.2,26.6,86,30.31,10.0,NNW,4.6,-,N/A,,Mostly Cloudy,340,2013-01-19 16:36:00
7:56 AM,30.2,26.6,86,30.32,10.0,NNW,4.6,-,N/A,,Mostly Cloudy,330,2013-01-19 16:56:00
8:16 AM,30.2,26.6,86,30.32,10.0,NNW,3.5,-,N/A,,Overcast,330,2013-01-19 17:16:00
8:36 AM,30.2,26.6,86,30.33,10.0,North,3.5,-,N/A,,Overcast,360,2013-01-19 17:36:00
9:16 AM,30.2,26.6,86,30.33,10.0,Calm,Calm,-,N/A,,Overcast,0,2013-01-19 18:16:00
10:36 AM,30.2,26.6,86,30.36,10.0,Calm,Calm,-,N/A,,Mostly Cloudy,0,2013-01-19 19:36:00
10:56 AM,32.0,26.6,80,30.36,10.0,North,5.8,-,N/A,,Partly Cloudy,350,2013-01-19 19:56:00
11:36 AM,33.8,26.6,75,30.35,10.0,NNW,6.9,-,N/A,,Clear,330,2013-01-19 20:36:00
11:56 AM,33.8,28.4,81,30.35,10.0,NNW,6.9,-,N/A,,Clear,330,2013-01-19 20:56:00
12:16 PM,33.8,26.6,75,30.35,10.0,NNW,6.9,-,N/A,,Clear,340,2013-01-19 21:16:00
12:36 PM,33.8,26.6,75,30.36,10.0,NW,4.6,-,N/A,,Clear,320,2013-01-19 21:36:00
12:56 PM,33.8,26.6,75,30.36,10.0,NNW,3.5,-,N/A,,Clear,340,2013-01-19 21:56:00
1:16 PM,33.8,26.6,75,30.36,10.0,NW,4.6,-,N/A,,Clear,320,2013-01-19 22:16:00
1:36 PM,33.8,26.6,75,30.35,10.0,North,4.6,-,N/A,,Clear,350,2013-01-19 22:36:00
1:56 PM,33.8,26.6,75,30.35,10.0,NNW,3.5,-,N/A,,Clear,330,2013-01-19 22:56:00
2:16 PM,33.8,26.6,75,30.35,10.0,NW,3.5,-,N/A,,Scattered Clouds,320,2013-01-19 23:16:00
2:36 PM,33.8,26.6,75,30.35,10.0,Calm,Calm,-,N/A,,Overcast,0,2013-01-19 23:36:00
2:56 PM,33.8,26.6,75,30.35,10.0,Calm,Calm,-,N/A,,Overcast,0,2013-01-19 23:56:00
3:16 PM,33.8,26.6,75,30.35,10.0,North,3.5,-,N/A,,Mostly Cloudy,350,2013-01-20 00:16:00
3:36 PM,33.8,26.6,75,30.35,10.0,Calm,Calm,-,N/A,,Mostly Cloudy,0,2013-01-20 00:36:00
3:56 PM,32.0,26.6,80,30.35,10.0,Calm,Calm,-,N/A,,Mostly Cloudy,0,2013-01-20 00:56:00
4:16 PM,32.0,28.4,87,30.34,10.0,Calm,Calm,-,N/A,,Mostly Cloudy,0,2013-01-20 01:16:00
4:36 PM,32.0,26.6,80,30.34,10.0,North,4.6,-,N/A,,Mostly Cloudy,350,2013-01-20 01:36:00
4:56 PM,32.0,26.6,80,30.34,10.0,NNW,4.6,-,N/A,,Mostly Cloudy,330,2013-01-20 01:56:00
5:16 PM,30.2,26.6,86,30.34,10.0,NNW,3.5,-,N/A,,Mostly Cloudy,330,2013-01-20 02:16:00
5:36 PM,30.2,26.6,86,30.34,10.0,Calm,Calm,-,N/A,,Mostly Cloudy,0,2013-01-20 02:36:00
5:56 PM,30.2,24.8,80,30.34,5.0,Calm,Calm,-,N/A,,Scattered Clouds,0,2013-01-20 02:56:00
6:16 PM,28.4,24.8,86,30.33,3.0,Calm,Calm,-,N/A,,Scattered Clouds,0,2013-01-20 03:16:00
6:36 PM,28.4,23.0,80,30.33,9.0,Calm,Calm,-,N/A,,Scattered Clouds,0,2013-01-20 03:36:00
6:56 PM,28.4,24.8,86,30.33,10.0,Calm,Calm,-,N/A,,Overcast,0,2013-01-20 03:56:00
7:16 PM,28.4,24.8,86,30.33,8.0,Calm,Calm,-,N/A,,Overcast,0,2013-01-20 04:16:00
7:36 PM,28.4,24.8,86,30.33,10.0,Calm,Calm,-,N/A,,Overcast,0,2013-01-20 04:36:00
7:56 PM,28.4,24.8,86,30.33,10.0,Calm,Calm,-,N/A,,Overcast,0,2013-01-20 04:56:00
8:16 PM,28.4,24.8,86,30.33,10.0,Calm,Calm,-,N/A,,Overcast,0,2013-01-20 05:16:00
8:36 PM,28.4,26.6,93,30.33,10.0,Calm,Calm,-,N/A,,Overcast,0,2013-01-20 05:36:00
8:56 PM,28.4,26.6,93,30.33,10.0,Calm,Calm,-,N/A,,Overcast,0,2013-01-20 05:56:00
9:16 PM,30.2,26.6,86,30.33,10.0,Calm,Calm,-,N/A,,Overcast,0,2013-01-20 06:16:00
9:36 PM,30.2,26.6,86,30.33,10.0,Calm,Calm,-,N/A,,Overcast,0,2013-01-20 06:36:00
9:56 PM,30.2,26.6,86,30.32,10.0,Calm,Calm,-,N/A,,Overcast,0,2013-01-20 06:56:00
10:16 PM,30.2,26.6,86,30.32,10.0,Calm,Calm,-,N/A,,Overcast,0,2013-01-20 07:16:00
10:36 PM,30.2,26.6,86,30.33,10.0,Calm,Calm,-,N/A,,Overcast,0,2013-01-20 07:36:00
10:56 PM,30.2,26.6,86,30.32,10.0,Calm,Calm,-,N/A,,Overcast,0,2013-01-20 07:56:00
11:16 PM,30.2,26.6,86,30.32,10.0,Calm,Calm,-,N/A,,Overcast,0,2013-01-20 08:16:00
11:36 PM,30.2,26.6,86,30.32,10.0,Calm,Calm,-,N/A,,Overcast,0,2013-01-20 08:36:00
11:56 PM,30.2,26.6,86,30.32,10.0,Calm,Calm,-,N/A,,Overcast,0,2013-01-20 08:56:00